Weather History for KMDH - October, 2014

Change the Weather History Date:

Tuesday, October 28, 2014

  Actual Average Record
Temperature  
Mean Temperature 61 °F -  
Max Temperature 71 °F 65 °F 92 °F (1927)
Min Temperature 51 °F 36 °F 20 °F (1976)
Degree Days  
Heating Degree Days 4    
Growing Degree Days 11 (Base 50)    
Moisture  
Dew Point 51 °F    
Average Humidity 70    
Maximum Humidity 94    
Minimum Humidity 30    
Precipitation  
Precipitation 0.55 in - - ()
Sea Level Pressure  
Sea Level Pressure 29.98 in    
Wind  
Wind Speed 10 mph (WNW)    
Max Wind Speed 18 mph    
Max Gust Speed 26 mph    
Visibility 8 miles    
Events Rain    
Averages and records for this station are not official NWS values.
T = Trace of Precipitation, MM = Missing Value Source: NWS Daily Summary

Daily Weather History Graph

Daily Weather History Graph

Search for Another Location

Airport or City:

Trip Planner

Search our weather history database for the weather conditions in past years. The results will help you decide how hot, cold, wet, or windy it might be!

Date:

Astronomy

Oct. 28, 2014 Rise Set
Actual Time 7:18 AM CDT 6:02 PM CDT
Civil Twilight 6:51 AM CDT 6:29 PM CDT
Nautical Twilight 6:20 AM CDT 7:00 PM CDT
Astronomical Twilight 5:49 AM CDT 7:31 PM CDT
Moon 11:45 AM CDT (10/28) 10:10 PM CDT (10/28)
Length of Visible Light 11h 38m
Length of Day
10h 44m
Waxing Crescent, 24% of the Moon is Illuminated
Oct 28
Waxing Crescent
Oct 30
First Quarter
Nov 6
Full
Nov 14
Last Quarter
Nov 22
New

Hourly Weather History & Observations

Time (CDT) Temp. Dew Point Humidity Pressure Visibility Wind Dir Wind Speed Gust Speed Precip Events Conditions
12:52 AM 71.1 °F 55.9 °F 59% 29.85 in 10.0 mi SSW 17.3 mph 23.0 mph N/A   Overcast
1:52 AM 70.0 °F 57.0 °F 63% 29.84 in 10.0 mi SSW 13.8 mph 19.6 mph N/A   Overcast
2:52 AM 70.0 °F 57.0 °F 63% 29.84 in 10.0 mi SW 12.7 mph 21.9 mph N/A   Overcast
3:52 AM 69.1 °F 57.9 °F 68% 29.83 in 10.0 mi SSW 12.7 mph - N/A   Mostly Cloudy
4:52 AM 69.1 °F 57.9 °F 68% 29.85 in 10.0 mi SW 11.5 mph - N/A   Overcast
5:52 AM 64.9 °F 61.0 °F 87% 29.88 in 2.5 mi WSW 11.5 mph - 0.14 in Rain Heavy Rain
6:14 AM 64.0 °F 62.1 °F 93% 29.89 in 3.0 mi SW 10.4 mph - 0.11 in Rain Rain
6:41 AM 64.0 °F 62.1 °F 93% 29.90 in 4.0 mi WSW 9.2 mph - 0.19 in Rain Light Rain
6:50 AM 64.4 °F 62.6 °F 94% 29.91 in 3.0 mi West 6.9 mph - 0.22 in Rain Rain
6:52 AM 64.0 °F 62.1 °F 93% 29.90 in 3.0 mi West 9.2 mph - 0.23 in Rain Rain
6:55 AM 64.0 °F 62.1 °F 93% 29.92 in 2.5 mi West 8.1 mph - 0.02 in Rain Heavy Rain
7:00 AM 64.0 °F 62.1 °F 93% 29.92 in 2.5 mi West 9.2 mph - 0.04 in Rain Rain
7:10 AM 63.0 °F 61.0 °F 93% 29.93 in 2.5 mi North 17.3 mph 25.3 mph 0.10 in Rain Heavy Rain
7:16 AM 60.1 °F 55.0 °F 83% 29.95 in 4.0 mi North 18.4 mph 26.5 mph 0.12 in Rain Rain
7:22 AM 59.0 °F 54.0 °F 83% 29.95 in 8.0 mi NNW 13.8 mph 26.5 mph 0.12 in Rain Light Rain
7:29 AM 59.0 °F 54.0 °F 83% 29.96 in 7.0 mi NNW 11.5 mph 20.7 mph 0.14 in Rain Rain
7:52 AM 57.9 °F 54.0 °F 87% 29.98 in 10.0 mi NNW 10.4 mph - 0.17 in Rain Light Rain
8:52 AM 57.0 °F 51.1 °F 81% 30.01 in 10.0 mi Variable 3.5 mph - 0.01 in   Overcast
9:52 AM 57.9 °F 48.9 °F 72% 30.04 in 10.0 mi NW 5.8 mph - N/A   Overcast
10:52 AM 60.1 °F 48.0 °F 64% 30.05 in 10.0 mi Calm Calm - N/A   Mostly Cloudy
11:52 AM 61.0 °F 46.9 °F 60% 30.06 in 10.0 mi WNW 4.6 mph - N/A   Overcast
12:52 PM 64.0 °F 45.0 °F 50% 30.04 in 10.0 mi Variable 4.6 mph - N/A   Overcast
1:52 PM 64.9 °F 43.0 °F 45% 30.04 in 10.0 mi WNW 8.1 mph - N/A   Scattered Clouds
2:52 PM 66.9 °F 37.9 °F 34% 30.02 in 10.0 mi NW 9.2 mph - N/A   Scattered Clouds
3:52 PM 68.0 °F 35.1 °F 30% 30.03 in 10.0 mi NW 8.1 mph - N/A   Overcast
4:52 PM 66.9 °F 36.0 °F 32% 30.04 in 10.0 mi NNW 6.9 mph - N/A   Overcast
5:52 PM 64.0 °F 36.0 °F 35% 30.06 in 10.0 mi NW 6.9 mph - N/A   Overcast
6:52 PM 60.1 °F 39.0 °F 46% 30.07 in 10.0 mi NNW 4.6 mph - N/A   Overcast
7:52 PM 57.0 °F 41.0 °F 55% 30.08 in 10.0 mi Calm Calm - N/A   Mostly Cloudy
8:52 PM 54.0 °F 44.1 °F 69% 30.08 in 10.0 mi Calm Calm - N/A   Mostly Cloudy
9:52 PM 52.0 °F 46.0 °F 80% 30.10 in 10.0 mi Calm Calm - N/A   Partly Cloudy
10:52 PM 51.1 °F 44.1 °F 77% 30.11 in 10.0 mi SW 3.5 mph - N/A   Clear
11:52 PM 51.1 °F 45.0 °F 80% 30.11 in 10.0 mi Calm Calm - N/A   Clear